Baraboo, WI

10:34 PM CDT on August 28, 2016 (GMT -0500)
Baraboo Wisconsin Dells

Weather History for KDLL - November, 2012

Change the Weather History Date:

Thursday, November 8, 2012

  Actual Average Record
Temperature  
Mean Temperature 41 °F -  
Max Temperature 50 °F 46 °F 77 °F (1999)
Min Temperature 32 °F 26 °F -9 °F (1991)
Degree Days  
Heating Degree Days 24    
Moisture  
Dew Point 33 °F    
Average Humidity 79    
Maximum Humidity 100    
Minimum Humidity 50    
Precipitation  
Precipitation 0.00 in - - ()
Sea Level Pressure  
Sea Level Pressure 30.08 in    
Wind  
Wind Speed 5 mph (South)    
Max Wind Speed 16 mph    
Max Gust Speed 18 mph    
Visibility 8 miles    
Events      
Averages and records for this station are not official NWS values.
T = Trace of Precipitation, MM = Missing Value Source: NWS Daily Summary

Daily Weather History Graph

Daily Weather History Graph

Search for Another Location

Airport or City:

Trip Planner

Search our weather history database for the weather conditions in past years. The results will help you decide how hot, cold, wet, or windy it might be!

Date:

Astronomy

Nov. 08, 2012 Rise Set
Actual Time 6:44 AM CST 4:40 PM CST
Civil Twilight 6:14 AM CST 5:11 PM CST
Nautical Twilight 5:39 AM CST 5:45 PM CST
Astronomical Twilight 5:06 AM CST 6:18 PM CST
Moon 12:29 AM CST (11/8) 1:31 PM CST (11/8)
Length of Visible Light 10h 57m
Length of Day
9h 56m
Waning Crescent, 32% of the Moon is Illuminated
Nov 8
Waning Crescent
Nov 13
New
Nov 20
First Quarter
Nov 28
Full
Dec 6
Last Quarter

Hourly Weather History & Observations

Time (CST) Temp. Windchill Dew Point Humidity Pressure Visibility Wind Dir Wind Speed Gust Speed Precip Events Conditions
12:15 AM 32.0 °F - 32.0 °F 100% 30.13 in 4.0 mi Calm Calm - N/A   Overcast
12:35 AM 32.0 °F - 32.0 °F 100% 30.13 in 3.0 mi Calm Calm - N/A   Overcast
1:15 AM 33.8 °F - 32.0 °F 93% 30.13 in 4.0 mi Calm Calm - N/A   Overcast
1:35 AM 33.8 °F 30.8 °F 32.0 °F 93% 30.13 in 4.0 mi South 3.5 mph - N/A   Overcast
1:55 AM 33.8 °F 30.8 °F 32.0 °F 93% 30.13 in 5.0 mi South 3.5 mph - N/A   Overcast
2:15 AM 33.8 °F 30.8 °F 32.0 °F 93% 30.14 in 5.0 mi South 3.5 mph - N/A   Overcast
2:35 AM 33.8 °F 30.8 °F 32.0 °F 93% 30.13 in 5.0 mi SSE 3.5 mph - N/A   Overcast
2:55 AM 33.8 °F 29.6 °F 32.0 °F 93% 30.13 in 5.0 mi South 4.6 mph - N/A   Overcast
3:15 AM 35.6 °F - 33.8 °F 93% 30.13 in 5.0 mi Calm Calm - N/A   Overcast
3:35 AM 35.6 °F 31.7 °F 33.8 °F 93% 30.12 in 5.0 mi South 4.6 mph - N/A   Overcast
3:55 AM 35.6 °F 31.7 °F 33.8 °F 93% 30.13 in 7.0 mi South 4.6 mph - N/A   Overcast
4:15 AM 35.6 °F 31.7 °F 32.0 °F 87% 30.13 in 10.0 mi South 4.6 mph - N/A   Overcast
4:35 AM 35.6 °F 32.8 °F 32.0 °F 87% 30.13 in 10.0 mi SSW 3.5 mph - N/A   Overcast
4:55 AM 35.6 °F - 32.0 °F 87% 30.13 in 10.0 mi Calm Calm - N/A   Overcast
5:15 AM 35.6 °F 32.8 °F 32.0 °F 87% 30.12 in 10.0 mi South 3.5 mph - N/A   Overcast
5:35 AM 33.8 °F 29.6 °F 32.0 °F 93% 30.12 in 10.0 mi South 4.6 mph - N/A   Overcast
5:55 AM 33.8 °F 30.8 °F 32.0 °F 93% 30.12 in 10.0 mi South 3.5 mph - N/A   Overcast
6:15 AM 33.8 °F 28.6 °F 32.0 °F 93% 30.12 in 7.0 mi SSE 5.8 mph - N/A   Overcast
6:35 AM 33.8 °F 28.6 °F 32.0 °F 93% 30.12 in 10.0 mi SSE 5.8 mph - N/A   Mostly Cloudy
6:55 AM 32.0 °F 27.5 °F 32.0 °F 100% 30.12 in 7.0 mi South 4.6 mph - N/A   Scattered Clouds
7:15 AM 33.8 °F 29.6 °F 32.0 °F 93% 30.12 in 10.0 mi South 4.6 mph - N/A   Mostly Cloudy
7:35 AM 33.8 °F 29.6 °F 32.0 °F 93% 30.13 in 10.0 mi South 4.6 mph - N/A   Overcast
7:55 AM 35.6 °F 31.7 °F 32.0 °F 87% 30.14 in 10.0 mi SSW 4.6 mph - N/A   Overcast
8:15 AM 37.4 °F 32.8 °F 33.8 °F 87% 30.13 in 10.0 mi South 5.8 mph - N/A   Scattered Clouds
8:35 AM 37.4 °F 31.4 °F 33.8 °F 87% 30.13 in 10.0 mi South 8.1 mph - N/A   Clear
8:55 AM 41.0 °F 34.3 °F 32.0 °F 70% 30.14 in 10.0 mi SSW 11.5 mph - N/A   Clear
9:15 AM 41.0 °F 33.9 °F 32.0 °F 70% 30.13 in 10.0 mi SSW 12.7 mph 18.4 mph N/A   Clear
9:35 AM 41.0 °F 34.7 °F 32.0 °F 70% 30.13 in 10.0 mi South 10.4 mph - N/A   Clear
9:55 AM 42.8 °F 35.8 °F 32.0 °F 66% 30.12 in 10.0 mi South 13.8 mph - N/A   Scattered Clouds
10:15 AM 42.8 °F 35.8 °F 32.0 °F 66% 30.12 in 10.0 mi SSW 13.8 mph - N/A   Scattered Clouds
10:35 AM 44.6 °F 37.4 °F 32.0 °F 61% 30.11 in 10.0 mi SSW 16.1 mph - N/A   Scattered Clouds
10:55 AM 44.6 °F 38.1 °F 32.0 °F 61% 30.10 in 10.0 mi SSW 13.8 mph - N/A   Clear
11:15 AM 44.6 °F 38.4 °F 32.0 °F 61% 30.10 in 10.0 mi SSW 12.7 mph - N/A   Clear
11:35 AM 44.6 °F 38.4 °F 32.0 °F 61% 30.09 in 10.0 mi South 12.7 mph - N/A   Clear
11:55 AM 46.4 °F 40.7 °F 32.0 °F 57% 30.07 in 10.0 mi South 12.7 mph - N/A   Clear
12:15 PM 46.4 °F 41.1 °F 33.8 °F 62% 30.07 in 10.0 mi SSW 11.5 mph - N/A   Clear
12:35 PM 46.4 °F 41.1 °F 32.0 °F 57% 30.06 in 10.0 mi South 11.5 mph - N/A   Clear
12:55 PM 50.0 °F - 33.8 °F 54% 30.05 in 10.0 mi South 13.8 mph - N/A   Clear
1:55 PM 50.0 °F - 33.8 °F 54% 30.03 in 10.0 mi South 12.7 mph - N/A   Clear
2:15 PM 50.0 °F - 32.0 °F 50% 30.02 in 10.0 mi SSW 10.4 mph - N/A   Clear
2:35 PM 50.0 °F - 33.8 °F 54% 30.02 in 10.0 mi SSW 12.7 mph - N/A   Clear
2:55 PM 50.0 °F - 33.8 °F 54% 30.02 in 10.0 mi South 12.7 mph - N/A   Clear
3:15 PM 50.0 °F - 33.8 °F 54% 30.02 in 10.0 mi SSW 11.5 mph - N/A   Clear
3:35 PM 48.2 °F - 33.8 °F 58% 30.02 in 10.0 mi SSW 12.7 mph 16.1 mph N/A   Clear
4:15 PM 46.4 °F 41.5 °F 33.8 °F 62% 30.00 in 10.0 mi SSW 10.4 mph - N/A   Clear
4:35 PM 44.6 °F 40.2 °F 33.8 °F 66% 30.00 in 10.0 mi South 8.1 mph - N/A   Clear
4:55 PM 42.8 °F 38.6 °F 33.8 °F 70% 30.00 in 10.0 mi South 6.9 mph - N/A   Clear
5:15 PM 42.8 °F 38.6 °F 33.8 °F 70% 30.00 in 10.0 mi South 6.9 mph - N/A   Clear
5:35 PM 42.8 °F 38.6 °F 33.8 °F 70% 30.00 in 10.0 mi South 6.9 mph - N/A   Clear
5:55 PM 42.8 °F 39.3 °F 33.8 °F 70% 30.01 in 10.0 mi South 5.8 mph - N/A   Clear
6:15 PM 41.0 °F 38.0 °F 33.8 °F 76% 30.01 in 10.0 mi South 4.6 mph - N/A   Clear
6:35 PM 42.8 °F 39.3 °F 33.8 °F 70% 30.02 in 10.0 mi SSW 5.8 mph - N/A   Clear
6:55 PM 41.0 °F 37.1 °F 33.8 °F 76% 30.02 in 10.0 mi South 5.8 mph - N/A   Clear
7:15 PM 41.0 °F 37.1 °F 33.8 °F 76% 30.01 in 10.0 mi South 5.8 mph - N/A   Clear
7:35 PM 41.0 °F 38.0 °F 33.8 °F 76% 30.02 in 10.0 mi South 4.6 mph - N/A   Clear
7:55 PM 41.0 °F 39.0 °F 33.8 °F 76% 30.03 in 10.0 mi SW 3.5 mph - N/A   Clear
8:15 PM 41.0 °F - 33.8 °F 76% 30.03 in 10.0 mi Calm Calm - N/A   Clear
8:35 PM 37.4 °F - 32.0 °F 81% 30.04 in 10.0 mi Calm Calm - N/A   Clear
8:55 PM 35.6 °F - 33.8 °F 93% 30.04 in 10.0 mi Calm Calm - N/A   Clear
9:15 PM 35.6 °F - 32.0 °F 87% 30.05 in 10.0 mi Calm Calm - N/A   Clear
9:35 PM 33.8 °F - 32.0 °F 93% 30.05 in 7.0 mi Calm Calm - N/A   Clear
9:55 PM 33.8 °F - 32.0 °F 93% 30.05 in 5.0 mi Calm Calm - N/A   Clear
10:15 PM 35.6 °F 32.8 °F 32.0 °F 87% 30.05 in 7.0 mi SE 3.5 mph - N/A   Clear
10:35 PM 33.8 °F - 32.0 °F 93% 30.06 in 5.0 mi Calm Calm - N/A   Clear
10:55 PM 33.8 °F 30.8 °F 32.0 °F 93% 30.06 in 5.0 mi ESE 3.5 mph - N/A   Clear
11:15 PM 32.0 °F 27.5 °F 32.0 °F 100% 30.06 in 4.0 mi ESE 4.6 mph - N/A   Clear
11:35 PM 33.8 °F 30.8 °F 32.0 °F 93% 30.06 in 7.0 mi SE 3.5 mph - N/A   Clear
11:55 PM 32.0 °F 28.7 °F 32.0 °F 100% 30.06 in 4.0 mi SE 3.5 mph - N/A   Clear